TimeAKST,TemperatureF,Dew PointF,Humidity,Sea Level PressureIn,VisibilityMPH,Wind Direction,Wind SpeedMPH,Gust SpeedMPH,PrecipitationIn,Events,Conditions,WindDirDegrees,DateUTC
12:09 AM,33.8,33.8,100,30.05,3.0,SE,5.8,-,0.01,Rain,Light Rain,130,2013-12-07 09:09:00
12:53 AM,33.1,33.1,100,30.06,3.0,East,8.1,-,0.02,Rain,Light Rain,100,2013-12-07 09:53:00
1:00 AM,33.8,33.8,100,30.05,3.0,ESE,8.1,-,0.00,Rain,Light Rain,110,2013-12-07 10:00:00
1:14 AM,33.8,33.8,100,30.05,2.0,ESE,8.1,-,0.00,,Overcast,110,2013-12-07 10:14:00
1:23 AM,33.8,33.8,100,30.05,2.5,ESE,8.1,-,0.00,,Overcast,110,2013-12-07 10:23:00
1:32 AM,33.8,33.8,100,30.05,3.0,ESE,6.9,-,0.00,,Overcast,110,2013-12-07 10:32:00
1:53 AM,33.1,33.1,100,30.06,3.0,ESE,8.1,-,0.00,,Overcast,110,2013-12-07 10:53:00
2:00 AM,33.8,33.8,100,30.06,2.0,East,9.2,-,N/A,,Overcast,100,2013-12-07 11:00:00
2:33 AM,33.8,33.8,100,30.06,3.0,East,8.1,-,0.01,,Overcast,100,2013-12-07 11:33:00
2:53 AM,33.1,33.1,100,30.06,3.0,East,8.1,-,0.01,,Overcast,100,2013-12-07 11:53:00
3:11 AM,33.8,33.8,100,30.06,4.0,ESE,6.9,-,0.00,Rain,Light Rain,110,2013-12-07 12:11:00
3:25 AM,33.8,33.8,100,30.06,4.0,ESE,8.1,-,0.00,Rain,Light Rain,110,2013-12-07 12:25:00
3:38 AM,33.8,33.8,100,30.05,2.0,ESE,6.9,-,0.00,,Overcast,110,2013-12-07 12:38:00
3:49 AM,33.8,33.8,100,30.06,2.0,ESE,8.1,-,0.00,,Overcast,110,2013-12-07 12:49:00
3:53 AM,33.1,33.1,100,30.06,2.0,ESE,8.1,-,0.00,,Overcast,120,2013-12-07 12:53:00
4:40 AM,33.8,33.8,100,30.05,3.0,ESE,9.2,-,0.00,Rain,Light Rain,120,2013-12-07 13:40:00
4:53 AM,33.1,33.1,100,30.06,4.0,ESE,9.2,-,0.01,,Overcast,110,2013-12-07 13:53:00
5:24 AM,33.8,33.8,100,30.05,1.8,ESE,8.1,-,N/A,,Overcast,110,2013-12-07 14:24:00
5:44 AM,33.8,33.8,100,30.06,1.0,ESE,6.9,-,N/A,,Mist,120,2013-12-07 14:44:00
5:53 AM,33.1,33.1,100,30.06,1.2,ESE,8.1,-,N/A,,Overcast,110,2013-12-07 14:53:00
6:07 AM,33.8,33.8,100,30.05,1.5,ESE,9.2,-,N/A,,Overcast,110,2013-12-07 15:07:00
6:53 AM,33.1,33.1,100,30.05,1.5,ESE,5.8,-,N/A,,Overcast,110,2013-12-07 15:53:00
7:16 AM,-9999,-9999,N/A,30.05,2.0,ESE,4.6,-,0.02,Rain,Light Rain,120,2013-12-07 16:16:00
7:27 AM,-9999,-9999,N/A,30.04,3.0,East,6.9,-,0.04,Rain,Light Rain,100,2013-12-07 16:27:00
7:53 AM,36.0,35.1,97,30.04,3.0,East,6.9,-,0.07,Rain,Light Rain,90,2013-12-07 16:53:00
8:53 AM,34.0,34.0,100,30.03,8.0,South,6.9,-,0.09,Rain,Light Rain,170,2013-12-07 17:53:00
9:12 AM,33.8,33.8,100,30.03,6.0,South,6.9,-,0.02,Rain,Light Rain,170,2013-12-07 18:12:00
9:40 AM,33.8,33.8,100,30.04,3.0,South,6.9,-,0.04,Snow,Light Snow,170,2013-12-07 18:40:00
9:53 AM,34.0,33.1,96,30.04,4.0,South,6.9,-,0.05,Snow,Light Snow,170,2013-12-07 18:53:00
10:53 AM,32.0,32.0,100,30.06,4.0,SSW,6.9,-,0.01,Snow,Light Snow,210,2013-12-07 19:53:00
11:51 AM,33.8,32.0,93,30.07,4.0,West,6.9,-,0.01,Snow,Light Snow,280,2013-12-07 20:51:00
11:53 AM,33.1,32.0,96,30.07,4.0,WNW,8.1,-,0.01,Snow,Light Snow,290,2013-12-07 20:53:00
12:53 PM,32.0,30.0,92,30.12,10.0,WNW,12.7,-,0.00,,Overcast,300,2013-12-07 21:53:00
1:53 PM,32.0,30.0,92,30.16,10.0,WNW,10.4,-,N/A,,Overcast,300,2013-12-07 22:53:00
2:53 PM,30.9,30.9,100,30.19,10.0,NNW,6.9,-,N/A,,Mostly Cloudy,330,2013-12-07 23:53:00
3:53 PM,30.0,30.0,100,30.20,10.0,West,6.9,-,N/A,,Mostly Cloudy,270,2013-12-08 00:53:00
4:53 PM,28.9,28.9,100,30.23,10.0,WNW,8.1,-,N/A,,Overcast,290,2013-12-08 01:53:00
5:16 PM,30.2,30.2,100,30.24,10.0,WNW,6.9,-,N/A,,Overcast,300,2013-12-08 02:16:00
5:53 PM,30.9,30.0,96,30.25,10.0,WNW,6.9,-,N/A,,Overcast,290,2013-12-08 02:53:00
6:53 PM,30.0,28.9,96,30.28,10.0,WNW,9.2,-,N/A,,Overcast,290,2013-12-08 03:53:00
7:32 PM,28.4,28.4,100,30.29,10.0,West,11.5,-,N/A,,Scattered Clouds,280,2013-12-08 04:32:00
7:53 PM,28.9,27.0,92,30.30,10.0,WNW,6.9,-,N/A,,Scattered Clouds,290,2013-12-08 04:53:00
8:53 PM,28.0,26.1,92,30.31,10.0,West,9.2,-,N/A,,Partly Cloudy,270,2013-12-08 05:53:00
9:53 PM,26.1,24.1,92,30.33,10.0,West,6.9,-,N/A,,Partly Cloudy,280,2013-12-08 06:53:00
10:53 PM,24.1,23.0,96,30.33,10.0,WNW,4.6,-,N/A,,Partly Cloudy,290,2013-12-08 07:53:00
11:53 PM,24.1,21.9,91,30.34,10.0,Calm,Calm,-,N/A,,Partly Cloudy,0,2013-12-08 08:53:00